Location: Unspecified
(58.9933°N, 5.6375°E)
Time: 00:11:27
(UTC+02:00)

Okean 3 - Visible Passes

Search period start: 31 May 2016 00:00
Search period end: 10 June 2016 00:00
Orbit: 577 x 605 km, 82.5° (Epoch: 29 May)

Date Brightness Start Highest point End Pass type
(mag) Time Alt. Az. Time Alt. Az. Time Alt. Az.
03 Jun 6.6 03:05:18 10° NNE 03:07:11 13° NE 03:09:03 10° ENE visible
04 Jun 6.4 03:13:22 10° NNE 03:15:58 16° NE 03:18:34 10° E visible
08 Jun 6.9 02:11:53 10° NE 02:12:16 10° NE 02:12:39 10° NE visible
09 Jun 6.4 02:19:10 10° NNE 02:21:05 13° NE 02:23:01 10° ENE visible
